This demonstration page uses our WeatherBlox Daily Observations layout. Learn more.

Left ArrowRight Arrow

39.95238, -75.16362

Hourly Observations for June 22, 2022

Temp ( °F °C ) Dew Point ( °F °C ) Humidity (%) Winds ( mph kmh ) Pressure ( in mb ) Visibility ( mi km ) Precip ( " mm )
12:54 am 00:54 Partly Cloudy 72 22.2 60 15.6 66 66 SSW 6 9 30.04 1017 10 16 0.00 0.00
1:54 am 01:54 Partly Cloudy 71 21.7 60 15.6 68 68 SSW 5 7 30.02 1017 10 16 0.00 0.00
2:54 am 02:54 Partly Cloudy 69 20.6 60 15.6 73 73 SSE 3 6 30.01 1016 10 16 0.00 0.00
3:54 am 03:54 Partly Cloudy 68 20 61 16.1 78 78 SSE 6 9 30.00 1016 10 16 0.00 0.00
4:54 am 04:54 Partly Cloudy 68 20 61 16.1 78 78 S 3 6 29.98 1015 10 16 0.00 0.00
5:54 am 05:54 Mostly Cloudy 67 19.4 61 16.1 81 81 SE 6 9 29.97 1015 10 16 0.00 0.00
6:54 am 06:54 Mostly Cloudy 69 20.6 61 16.1 76 76 SE 6 9 29.98 1015 10 16 0.00 0.00
7:54 am 07:54 Mostly Cloudy 70 21.1 62 16.7 76 76 E 6 9 29.98 1015 10 16 0.00 0.00
8:54 am 08:54 Mostly Cloudy 74 23.3 63 17.2 69 69 ESE 7 11 29.97 1015 10 16 0.00 0.00
9:54 am 09:54 Mostly Cloudy 76 24.4 64 17.8 67 67 ESE 9 15 29.96 1015 10 16 0.00 0.00
10:30 am 10:30 Mostly Cloudy 77 25 65 18.3 66 66 SE 10 17 29.97 1015 10 16 0.00 0.00
10:54 am 10:54 Mostly Cloudy 77 25 65 18.3 66 66 ESE 13 20 29.97 1015 10 16 0.00 0.00
11:54 am 11:54 Cloudy 74 23.3 64 17.8 71 71 ESE 14 22 29.98 1015 10 16 0.00 0.00
12:54 pm 12:54 Cloudy 73 22.8 64 17.8 74 74 ESE 13 20 29.98 1015 10 16 0.00 0.00
1:15 pm 13:15 Cloudy 73 22.8 64 17.8 74 74 ESE 13 20 29.98 1015 10 16 0.00 0.00
1:54 pm 13:54 Cloudy 72 22.2 63 17.2 73 73 E 13 20 29.97 1015 10 16 0.00 0.00
2:54 pm 14:54 Cloudy 71 21.7 64 17.8 79 79 ESE 13 20 29.95 1014 10 16 0.00 0.00
3:21 pm 15:21 Cloudy with Thunderstorms 70 21.1 63 17.2 79 79 ESE 10 17 29.96 1015 10 16 0.00 0.00
3:37 pm 15:37 Cloudy 70 21.1 63 17.2 79 79 SE 13 20 29.95 1014 10 16 0.00 0.00
3:54 pm 15:54 Cloudy 70 21.1 63 17.2 79 79 ESE 13 20 29.95 1014 10 16 0.00 0.00
4:54 pm 16:54 Cloudy 69 20.6 62 16.7 78 78 ESE 12 19 29.97 1015 10 16 0.00 0.00
5:54 pm 17:54 Cloudy 68 20 62 16.7 81 81 SSE 9 15 29.95 1014 10 16 0.00 0.00
6:17 pm 18:17 Cloudy 69 20.6 61 16.1 76 76 SSE 8 13 29.94 1014 10 16 0.00 0.00
6:54 pm 18:54 Cloudy 69 20.6 61 16.1 76 76 SE 6 9 29.96 1014 10 16 0.00 0.00
7:54 pm 19:54 Cloudy 69 20.6 61 16.1 76 76 E 9 15 29.95 1014 10 16 0.00 0.00
8:54 pm 20:54 Cloudy 68 20 61 16.1 78 78 E 10 17 29.96 1015 10 16 0.00 0.00
9:35 pm 21:35 Cloudy 68 20 61 16.1 78 78 ESE 10 17 29.97 1015 10 16 0.00 0.00
9:54 pm 21:54 Cloudy 68 20 61 16.1 78 78 E 8 13 29.98 1015 10 16 0.00 0.00
10:51 pm 22:51 Cloudy with Drizzle 66 19 63 17 88 88 E 13 20 29.98 1015 8 13 0.00 0.00
10:54 pm 22:54 Cloudy with Drizzle 67 19.4 62 16.7 84 84 E 13 20 29.98 1015 7 11 0.00 0.00
11:54 pm 23:54 Cloudy 67 19.4 62 16.7 84 84 E 9 15 29.98 1015 7 11 0.00 0.00

Powered by AerisWeather